Simultaneous Nadir Overpasses (SNOs) Predictions

Prediction of SNOs between GOES-15 and LANDSAT-8 Satellite Orbit:

Table of predicted SNOs for the next 14.0 days since TLE Epoch: 5/14/2021
Index Date Time (GOES-15) GOES-15 Lat,Lon LANDSAT-8 Lat,Lon Distance(km) Time Diff (sec)
1 05/15/2021 06:39:21 0.01,-128.12 0.20,-127.24 100.24 80
2 05/15/2021 19:00:37 -0.02,-128.15 0.90,-132.40 482.97 80
3 05/17/2021 06:27:11 0.02,-128.17 0.82,-124.29 441.22 80
4 05/17/2021 18:48:27 -0.02,-128.20 0.27,-129.44 141.95 80
5 05/19/2021 18:38:58 -0.03,-128.24 -0.42,-126.50 198.72 80
6 05/20/2021 07:00:22 0.03,-128.24 -0.71,-131.69 391.77 80
7 05/22/2021 06:48:12 0.03,-128.28 -0.08,-128.73 51.63 80
8 05/24/2021 06:33:22 0.02,-128.31 0.56,-125.78 288.05 80
9 05/24/2021 18:54:38 -0.03,-128.33 0.53,-130.94 297.04 80
10 05/26/2021 18:45:08 -0.03,-128.35 -0.11,-127.98 41.80 80
